Voltar ao catálogo

BREEZE-M DEB

TANK

AtivoHEO
NORAD 38100·DEBRIS·🇷🇺 Russia

Lançado Mar 25, 2012 de Baikonur Cosmodrome

Loading…

Próximas Passagens (próximas 24 horas)

TLE

AtualizadoSource: Space-Track

Época: Sep 13, 2026, 22:29 UTC

1 38100U 12011C   26256.93714748  .00000642  00000-0  21153-3 0  9998
2 38100  50.6760 143.8975 5032724 256.9953  44.4109  5.50142035287269

Acompanhe BREEZE-M DEB em tempo real com AllMySat

Download on the App Store